Location: Mohawk View
(42.7837°N, 73.7885°W)
Time: 11:49:14
(UTC+00:00)

Cosmos 1300 - Pass Details

Date: 17 June 2021
Orbit: 509 x 513 km, 82.5° (Epoch: 26 July)

Event Time Altitude Azimuth Distance (km) Brightness Sun altitude
Rises 02:48:19 0° 357° (N) 2,636 7.4 -17.6°
Reaches altitude 10° 02:50:31 10° 3° (N) 1,743 6.2 -17.8°
Maximum altitude 02:54:14 49° 79° (E) 670 3.1 -18.1°
Enters shadow 02:54:59 42° 117° (ESE) 744 3.1 -18.2°
